Location: Julian California
(33.0790°N, 116.6010°W)
Time: 08:17:29
(UTC-07:00)

Lacrosse 5 - Pass Details

Date: 14 June 2018
Orbit: 714 x 724 km, 57.0° (Epoch: 10 July)

Event Time Altitude Azimuth Distance (km) Brightness Sun altitude
Exits shadow 22:02:02 12° 69° (ENE) 2,039 4.0 -21.3°
Drops below altitude 10° 22:02:32 10° 65° (ENE) 2,193 4.2 -21.4°
Sets 22:05:15 0° 53° (NE) 3,115 5.1 -21.7°
